Location: Staunton
(38.1490°N, 79.0720°W)
Time: 10:03:29
(UTC-04:00)

ISS - Pass Details

Date: 22 May 2018
Orbit: 402 x 407 km, 51.6° (Epoch: 23 May)

Event Time Altitude Azimuth Distance (km) Brightness Sun altitude
Rises 21:32:00 0° 237° (WSW) 2,308 0.3 -11.7°
Reaches altitude 10° 21:34:05 10° 240° (WSW) 1,451 -0.7 -12.0°
Maximum altitude 21:37:18 62° 323° (NW) 455 -3.3 -12.5°
Drops below altitude 10° 21:40:33 10° 45° (NE) 1,456 -1.1 -13.0°
Sets 21:42:38 0° 49° (NE) 2,318 -0.1 -13.3°
